#timestamp,LO_Frequency,Hit,StdDev 
1514491215.7,286047012.0,N
1514491235.6,286047009.9,N
1514491255.4,286047009.6,N
1514491275.2,286047010.5,Y
1514491295.1,286046999.1,P
1514491296.0,286046999.1,N
1514491315.8,286046999.9,N
1514491335.6,286047004.0,N
1514491355.5,286047003.8,N
1514491375.3,286047004.7,N
1514491395.1,286047007.4,N
1514491415.8,286047009.0,N
1514491435.7,286047009.6,N
1514491455.5,286047011.9,N
1514491475.3,286047012.0,N
1514491495.2,286047014.0,Y
1514491515.0,286047010.9,P
1514491515.9,286047010.9,P
1514491535.7,286047009.3,P
1514491555.6,286047009.4,Y
1514491575.4,286047004.9,P
1514491595.2,286047008.5,P
1514491615.1,286047012.4,P
1514491616.0,286047012.4,Y
1514491635.8,286047001.9,P
1514491655.7,286047005.8,N
1514491675.5,286047005.1,N
1514491695.3,286047006.4,N
1514491715.2,286047007.5,Y
1514491735.9,286047001.5,P
1514491755.7,286046998.6,N
1514491775.5,286046997.6,N
1514491795.4,286046993.8,N
1514491815.2,286046995.2,N
1514491835.0,286046993.7,N
1514491835.9,286046993.7,N
1514491855.8,286046993.4,N
1514491875.6,286046993.2,N
1514491895.4,286046988.7,N
1514491915.3,286046988.5,N
1514491935.1,286046990.5,N
1514491936.0,286046990.5,N
1514491955.8,286046994.2,N
1514491975.7,286046992.1,N
1514491995.5,286046994.6,N
1514492015.3,286046992.1,N
1514492035.2,286046991.0,N
1514492055.9,286046989.6,N
1514492075.7,286046986.1,Y
1514492095.6,286046993.6,P
1514492115.4,286046994.8,P
1514492135.2,286046991.7,P
1514492155.1,286046991.3,Y
1514492156.0,286046991.3,P
1514492175.8,286046998.9,N
1514492195.6,286047001.1,N
1514492215.5,286046999.0,N
1514492235.3,286047000.4,N
1514492255.1,286047004.2,N
1514492275.8,286047003.0,N
1514492295.7,286047004.7,N
1514492315.5,286047003.5,N
1514492335.3,286047002.2,N
1514492355.2,286047000.3,N
1514492375.9,286047001.4,N
1514492395.7,286047002.7,N
1514492415.6,286047001.0,N
1514492435.4,286046996.8,N
1514492455.2,286046996.6,N
1514492475.1,286046997.6,N
1514492476.0,286046997.6,N
1514492495.8,286046998.4,N
1514492515.6,286046999.4,N
1514492535.5,286046998.9,N
1514492555.3,286046999.0,N
1514492575.1,286046997.2,N
1514492595.8,286046995.0,N
1514492615.7,286046998.0,N
1514492635.5,286046993.7,N
1514492655.3,286046993.5,N
1514492675.2,286046992.1,N
1514492695.9,286046996.2,N
1514492715.7,286046997.8,N
1514492735.6,286046996.1,N
1514492755.4,286046993.3,N
1514492775.2,286046993.5,N
1514492795.1,286046995.6,N
1514492796.0,286046995.6,N
1514492815.8,286046993.9,N
1514492835.6,286046994.8,N
1514492855.5,286046995.7,N
1514492875.3,286046992.3,N
1514492895.1,286046992.4,N
1514492915.8,286046991.7,N
1514492935.7,286046992.8,N
1514492955.5,286046992.7,N
1514492975.3,286046987.1,Y
1514492995.2,286046993.2,P
1514493015.0,286046992.5,P
1514493015.9,286046992.5,P
1514493035.8,286046995.7,Y
1514493055.6,286047002.0,P
1514493075.4,286047002.6,N
1514493095.2,286047000.8,N
1514493115.1,286047002.2,N
1514493116.0,286047002.2,N
1514493135.8,286047000.1,N
1514493155.6,286047002.7,N
1514493175.5,286047002.3,N
1514493195.3,286047002.8,N
1514493215.1,286047000.2,N
1514493235.9,286047002.1,N
1514493255.7,286047002.6,N
1514493275.5,286047004.7,N
1514493295.4,286047003.9,N
1514493315.2,286046999.6,N
1514493335.0,286047000.1,N
1514493335.9,286047000.1,N
1514493355.7,286047002.3,N
1514493375.6,286047001.8,N
1514493395.4,286047002.8,N
1514493415.2,286047001.9,N
1514493435.1,286047002.3,N
1514493436.0,286047002.3,N
1514493455.8,286047002.0,N
1514493475.6,286047002.5,N
1514493495.5,286047003.2,N
1514493515.3,286047001.5,N
1514493535.1,286047001.2,N
1514493555.9,286046997.5,N
1514493575.7,286046996.2,N
1514493595.5,286046995.9,N
1514493615.4,286046997.6,N
1514493635.2,286046993.3,Y
1514493655.0,286046990.3,P
1514493655.9,286046990.3,N
1514493675.8,286046992.3,N
1514493695.6,286046990.6,N
1514493715.4,286046993.1,N
1514493735.3,286046994.3,N
1514493755.1,286046989.6,N
1514493756.0,286046989.6,N
1514493775.8,286046989.0,Y
1514493795.7,286046993.5,P
1514493815.5,286046992.6,P
1514493835.3,286046996.4,P
1514493855.2,286046993.6,Y
1514493875.9,286047001.5,P
1514493895.7,286047001.0,N
1514493915.6,286046997.0,N
1514493935.4,286047000.0,N
1514493955.2,286046998.9,N
1514493975.0,286047002.2,N
1514493976.0,286047002.2,N
1514493995.8,286046999.9,N
1514494015.6,286046999.5,N
1514494035.4,286046998.7,N
1514494055.3,286046997.1,N
1514494075.1,286046995.6,N
1514494095.8,286046996.3,N
1514494115.7,286046995.0,N
1514494135.5,286046999.1,N
1514494155.3,286047002.4,N
1514494175.2,286047003.3,N
1514494195.9,286047002.9,N
1514494215.7,286047006.2,N
1514494235.6,286047008.0,N
1514494255.4,286047007.9,N
1514494275.2,286047013.1,Y
1514494295.1,286047018.7,P
1514494296.0,286047018.7,N
1514494315.8,286047019.7,N
1514494335.6,286047018.0,N
1514494355.4,286047019.7,N
1514494375.3,286047018.7,N
1514494395.1,286047019.2,N
1514494415.8,286047015.8,N
1514494435.7,286047020.7,Y
1514494455.5,286047004.5,P
1514494475.3,286047003.3,N
1514494495.2,286047003.4,N
1514494515.0,286047003.7,N
1514494515.9,286047003.7,N
1514494535.7,286047006.8,N
1514494555.6,286047007.7,N
1514494575.4,286047006.6,N
1514494595.2,286047010.8,N
1514494615.1,286047007.9,N
1514494616.0,286047007.9,N
1514494635.8,286047008.6,N
1514494655.6,286047010.3,N
1514494675.5,286047009.4,N
1514494695.3,286047013.5,Y
1514494715.1,286047004.5,P
1514494735.9,286047007.0,P
1514494755.7,286047006.9,P
1514494775.5,286047006.6,Y
1514494795.4,286046998.7,P
